GAOFEN-1 02

Last updated on Thu Oct 30 2025 00:02:32 GMT+0000 (Coordinated Universal Time)

1 43259U 18031A 25302.53793363 .00001275 00000+0 19084-3 0 9996 2 43259 98.0869 0.2952 0003232 44.4514 315.6955 14.76438071408664
UTC large
Height (km)
Speed (km/s)
/
Latitude / Longitude
Inclination (degrees)
Orbital Period (minutes)
Azimuth
Elevation
Range (km)
Doppler Factor

Next 0 passes for location: London (51.5072 / 0.1276)

Sorry there are no passes over London.